Aberdeen, SD

6:04 AM CDT on June 23, 2017 (GMT -0500)
Aberdeen Regional

Weather History for KABR - January, 2012

Change the Weather History Date:

Wednesday, January 18, 2012

  Actual Average Record
Temperature  
Mean Temperature 5 °F 12 °F  
Max Temperature 15 °F 22 °F 51 °F (1944)
Min Temperature -6 °F 1 °F -34 °F (1970)
Degree Days  
Heating Degree Days 60 53  
Month to date heating degree days 737 954  
Since 1 July heating degree days 3667 4445  
Cooling Degree Days 0 0  
Month to date cooling degree days 0 0  
Year to date cooling degree days 0 0  
Moisture  
Dew Point -4 °F    
Average Humidity 73    
Maximum Humidity 87    
Minimum Humidity 59    
Precipitation  
Precipitation T in 0.02 in 0.40 in (1913)
Month to date precipitation 0.17 0.30  
Year to date precipitation 0.17 0.30  
Snow  
Snow T in 0.10 in 4.00 in (1913)
Month to date snowfall 1.0 4.1  
Since 1 July snowfall 1.6 18.7  
Snow Depth T in    
Sea Level Pressure  
Sea Level Pressure 29.94 in    
Wind  
Wind Speed 14 mph (NW)    
Max Wind Speed 30 mph    
Max Gust Speed 37 mph    
Visibility 9 miles    
Events Snow    
T = Trace of Precipitation, MM = Missing Value Source: NWS Daily Summary

Daily Weather History Graph

Daily Weather History Graph

Search for Another Location

Airport or City:

Trip Planner

Search our weather history database for the weather conditions in past years. The results will help you decide how hot, cold, wet, or windy it might be!

Date:

Astronomy

Jan. 18, 2012 Rise Set
Actual Time 8:08 AM CST 5:20 PM CST
Civil Twilight 7:35 AM CST 5:53 PM CST
Nautical Twilight 6:58 AM CST 6:29 PM CST
Astronomical Twilight 6:23 AM CST 7:04 PM CST
Moon 3:40 AM CST (1/18) 12:58 PM CST (1/18)
Length of Visible Light 10h 17m
Length of Day
9h 12m
Waning Crescent, 24% of the Moon is Illuminated
Jan 18
Waning Crescent
Jan 23
New
Jan 30
First Quarter
Feb 7
Full
Feb 14
Last Quarter

Hourly Weather History & Observations

Time (CST) Temp. Windchill Dew Point Humidity Pressure Visibility Wind Dir Wind Speed Gust Speed Precip Events Conditions
12:53 AM -0.9 °F -16.4 °F -6.0 °F 79% 30.06 in 10.0 mi South 9.2 mph - N/A   Clear
1:53 AM 3.0 °F -15.5 °F -2.9 °F 76% 30.01 in 10.0 mi South 15.0 mph 20.7 mph N/A   Clear
2:53 AM 3.0 °F -14.8 °F -2.0 °F 80% 29.96 in 10.0 mi South 13.8 mph - N/A   Clear
3:53 AM 3.0 °F -12.5 °F -2.0 °F 80% 29.93 in 10.0 mi South 10.4 mph - N/A   Clear
4:53 AM 1.9 °F -11.8 °F -2.0 °F 83% 29.90 in 10.0 mi South 8.1 mph - N/A   Clear
5:53 AM 1.4 °F -8.3 °F -2.2 °F 85% 29.78 in 10.0 mi South 4.6 mph - N/A   Partly Cloudy
6:53 AM -0.0 °F -15.3 °F -4.0 °F 83% 29.85 in 10.0 mi South 9.2 mph - N/A   Clear
7:53 AM -0.9 °F -14.1 °F -5.1 °F 83% 29.85 in 10.0 mi SSW 6.9 mph - N/A   Clear
8:53 AM 3.0 °F -11.5 °F -2.0 °F 80% 29.83 in 10.0 mi SSW 9.2 mph - N/A   Partly Cloudy
9:53 AM 7.0 °F -7.5 °F 1.9 °F 80% 29.81 in 10.0 mi South 10.4 mph - N/A   Clear
10:53 AM 8.1 °F -3.2 °F 3.0 °F 80% 29.85 in 10.0 mi SW 6.9 mph - N/A   Overcast
11:49 AM 12.2 °F 1.7 °F 6.8 °F 79% 29.77 in 8.0 mi NW 6.9 mph - 0.00 in   Overcast
11:53 AM 14.0 °F 3.9 °F 7.0 °F 74% 29.86 in 5.0 mi NW 6.9 mph - 0.00 in Snow Light Snow
12:10 PM 15.8 °F -2.7 °F 8.6 °F 73% 29.77 in 1.8 mi NNW 24.2 mph 36.8 mph 0.00 in Snow Light Snow
12:21 PM 15.8 °F -3.1 °F 8.6 °F 73% 29.78 in 2.5 mi NNW 25.3 mph 32.2 mph 0.00 in Snow Light Snow
12:28 PM 14.0 °F -6.2 °F 5.0 °F 67% 29.79 in 5.0 mi NNW 27.6 mph 33.4 mph 0.00 in Snow Light Snow
12:44 PM 12.2 °F -8.9 °F 1.4 °F 62% 29.80 in 10.0 mi NNW 28.8 mph 34.5 mph 0.00 in   Mostly Cloudy
12:53 PM 10.9 °F -10.6 °F 1.9 °F 67% 29.91 in 10.0 mi NNW 28.8 mph 34.5 mph 0.00 in   Scattered Clouds
1:44 PM 10.4 °F -6.0 °F -0.4 °F 62% 29.83 in 10.0 mi NNW 15.0 mph 28.8 mph N/A   Mostly Cloudy
1:53 PM 10.0 °F -9.1 °F -0.0 °F 64% 29.93 in 10.0 mi NNW 20.7 mph 26.5 mph N/A   Mostly Cloudy
2:37 PM 8.6 °F -12.7 °F -2.2 °F 62% 29.86 in 10.0 mi NNW 25.3 mph 33.4 mph N/A   Scattered Clouds
2:53 PM 6.1 °F -15.2 °F -5.1 °F 60% 29.97 in 10.0 mi NNW 23.0 mph 28.8 mph N/A   Partly Cloudy
3:53 PM 1.9 °F -22.0 °F -8.0 °F 63% 30.02 in 10.0 mi NNW 26.5 mph 31.1 mph N/A   Mostly Cloudy
4:24 PM 1.4 °F -18.2 °F -9.4 °F 61% 29.95 in 10.0 mi North 16.1 mph 26.5 mph N/A   Scattered Clouds
4:31 PM 1.4 °F -18.8 °F -9.4 °F 61% 29.95 in 10.0 mi NNW 17.3 mph 24.2 mph N/A   Mostly Cloudy
4:53 PM -0.0 °F -22.9 °F -11.0 °F 60% 30.08 in 10.0 mi North 21.9 mph 27.6 mph N/A   Scattered Clouds
5:53 PM -0.9 °F -21.9 °F -11.9 °F 60% 30.10 in 10.0 mi NNW 17.3 mph 26.5 mph N/A   Clear
6:53 PM -2.0 °F -19.6 °F -11.9 °F 63% 30.14 in 10.0 mi NNW 11.5 mph - N/A   Mostly Cloudy
7:53 PM -4.0 °F -24.5 °F -14.1 °F 62% 30.16 in 10.0 mi North 15.0 mph 20.7 mph N/A   Overcast
8:53 PM -4.0 °F -25.8 °F -15.0 °F 59% 30.17 in 10.0 mi NNW 17.3 mph - N/A   Overcast
9:53 PM -5.8 °F -27.5 °F -16.6 °F 60% 30.06 in 10.0 mi NNW 16.1 mph - N/A   Overcast
10:53 PM -6.0 °F -26.3 °F -17.0 °F 59% 30.18 in 10.0 mi NNW 13.8 mph - N/A   Overcast
11:53 PM -6.0 °F -25.5 °F -17.0 °F 59% 30.19 in 10.0 mi NNW 12.7 mph - N/A   Overcast